This is the latest recevied weather packets stored in our database for station/object FREPRT-WX. If no packets are shown the sender has not sent any weather packets the latest 10 day(s).
| Time | Temp. | Humidity | Pressure | Rain* | Wind** | Luminosity | Snow |
|---|---|---|---|---|---|---|---|
| 1777773666 | 3.89° C | 64% | 987.4 hPa | 0 mm | - | - | - |
| 1777772737 | 3.89° C | 60% | 986.8 hPa | 0 mm | - | - | - |
| 1777771856 | 4.44° C | 60% | 986.8 hPa | 0 mm | - | - | - |
| 1777770937 | 4.44° C | 60% | 986.8 hPa | 0 mm | - | - | - |
| 1777770064 | 5° C | 60% | 986.8 hPa | 0 mm | - | - | - |
| 1777769137 | 5° C | 52% | 987.6 hPa | 0 mm | - | - | - |
| 1777768251 | 5.56° C | 52% | 987.9 hPa | 0 mm | - | - | - |
| 1777767337 | 6.11° C | 52% | 987.9 hPa | 0 mm | - | - | - |
| 1777766466 | 6.67° C | 52% | 987.9 hPa | 0 mm | - | - | - |
| 1777765538 | 7.22° C | 42% | 987.5 hPa | 0 mm | - | - | - |
| 1777764650 | 7.22° C | 42% | 987.6 hPa | 0 mm | - | - | - |
| 1777763738 | 7.78° C | 42% | 987.6 hPa | 0 mm | - | - | - |
| 1777762865 | 7.78° C | 42% | 987.6 hPa | 0 mm | - | - | - |
| 1777761938 | 7.78° C | 39% | 988.1 hPa | 0 mm | - | - | - |
| 1777761056 | 8.33° C | 40% | 988.7 hPa | 0 mm | - | - | - |
| 1777760139 | 8.33° C | 40% | 988.7 hPa | 0 mm | - | - | - |
| 1777759264 | 8.33° C | 40% | 988.7 hPa | 0 mm | - | - | - |
| 1777758338 | 8.33° C | 42% | 988.8 hPa | 0 mm | - | - | - |
| 1777757456 | 8.89° C | 39% | 988.5 hPa | 0 mm | - | - | - |
| 1777756538 | 8.89° C | 39% | 988.5 hPa | 0 mm | - | - | - |
| 1777755667 | 8.89° C | 39% | 988.5 hPa | 0 mm | - | - | - |
| 1777754738 | 8.89° C | 41% | 988.8 hPa | 0 mm | - | - | - |
| 1777753856 | 8.89° C | 39% | 989.3 hPa | 0 mm | - | - | - |
| 1777752938 | 8.33° C | 39% | 989.3 hPa | 0 mm | - | - | - |
| 1777752064 | 8.33° C | 39% | 989.3 hPa | 0 mm | - | - | - |
* Rain latest hour (hover to see other rain measurements)
** Current wind speed in m/s (hover to see current wind gust speed)